Location: Twentynine Palms Airport
(34.1316°N, 115.9458°W)
Time: 06:36:16
(UTC-08:00)

Amateur Radio Satellites - All Passes

Search period start: 10 December 2016 06:06
Search period end: 11 December 2016 06:06
Location: Twentynine Palms Airport, 34.1316°N, 115.9458°W

Satellite Date Start Highest point End Downlink Frequencies (MHz)
Time Altitude Azimuth
Cosmos 2491 10 Dec 06:08:57 06:17:43 81° 95° (E) 06:26:30 435.465 / 435.565
AIST 1 10 Dec 06:20:23 06:24:46 68° 265° (W) 06:29:07
CUTE-I 10 Dec 06:23:20 06:28:37 65° 286° (WNW) 06:33:51 437.470
CINEMA 3 10 Dec 06:30:06 06:34:10 29° 96° (E) 06:38:03 145.822/145.860
NOAA 15 10 Dec 06:30:50 06:35:55 49° 288° (WNW) 06:41:00 137.62
STRAND 1 10 Dec 06:50:13 06:55:09 47° 260° (W) 07:00:06 437.568
Cubesat XI-IV 10 Dec 06:51:14 06:56:03 35° 290° (WNW) 07:00:50 437.490
RS-15 10 Dec 06:52:03 07:03:42 71° 302° (WNW) 07:15:58 29.354- 29.394
CUTE 1.7 + AOD 2 10 Dec 06:52:43 06:56:26 29° 97° (E) 07:00:09 437.475
AIST 2 10 Dec 06:56:52 07:00:36 34° 304° (NW) 07:04:24 435.215
LilacSat-2 10 Dec 07:00:54 07:02:43 13° 291° (WNW) 07:04:31 437.200
CANX-2 10 Dec 07:11:22 07:15:33 61° 100° (E) 07:19:44 2200.000
NOAA 18 10 Dec 07:12:41 07:17:46 38° 290° (WNW) 07:22:47 137.9125
DOVE 4 10 Dec 07:24:07 07:27:34 18° 294° (WNW) 07:30:57 437.250
SEEDS 10 Dec 07:26:49 07:30:55 51° 100° (E) 07:35:00 437.485
COMPASS 1 10 Dec 07:28:17 07:32:05 33° 98° (E) 07:35:52 437.405
HO-68 10 Dec 07:28:26 07:35:40 73° 104° (ESE) 07:42:50 435.675
YUBILEINY 10 Dec 07:44:47 07:48:53 14° 282° (WNW) 07:53:00 435.215
Cosmos 2504 10 Dec 07:46:10 07:53:07 29° 276° (W) 07:59:43 435.465 / 435.565
Oscar 11 10 Dec 07:49:09 07:51:51 16° 94° (E) 07:54:32 145.826/435.025
CUBEBUG 2 10 Dec 07:52:20 07:56:35 58° 100° (E) 08:00:42 437.445
ANTELSAT 10 Dec 07:53:47 07:54:37 10° 65° (ENE) 07:55:27 437.575/2403.000
CINEMA 3 10 Dec 08:07:33 08:11:04 21° 292° (WNW) 08:14:28 145.822/145.860
Cosmos 2491 10 Dec 08:10:01 08:15:29 18° 292° (WNW) 08:20:59 435.465 / 435.565
CUSAT 1 10 Dec 08:10:50 08:13:48 45° 97° (E) 08:16:23 437.405
JUGNU 10 Dec 08:11:37 08:14:35 14° 167° (SSE) 08:17:34 437.505
AO-85 10 Dec 08:24:09 08:24:34 10° 47° (NE) 08:24:59 145.980
UWE-3 10 Dec 08:24:35 08:28:50 90° 96° (E) 08:32:59 435.000/436.395/437.385
AAUSAT CUBESAT 2 10 Dec 08:28:16 08:32:19 54° 285° (WNW) 08:36:22 437.432
CUTE 1.7 + AOD 2 10 Dec 08:29:07 08:32:02 18° 290° (WNW) 08:34:56 437.475
PRISM 10 Dec 08:30:34 08:34:31 54° 259° (W) 08:38:32 437.425
DELFI C3 10 Dec 08:45:09 08:48:25 24° 96° (E) 08:51:40 145.870
ZACube-1 10 Dec 08:54:44 08:58:53 66° 284° (WNW) 09:02:58 437.345
UNISAT 6 10 Dec 08:54:58 08:59:31 54° 75° (ENE) 09:04:02 437.425
FUNcube-1 10 Dec 08:59:36 09:03:43 63° 284° (WNW) 09:07:47 145.935
COMPASS 1 10 Dec 09:04:46 09:07:19 16° 291° (WNW) 09:09:52 437.405
SEEDS 10 Dec 09:05:01 09:06:07 11° 293° (WNW) 09:07:12 437.485
RS-15 10 Dec 09:10:19 09:18:58 22° 328° (NNW) 09:27:51 29.354- 29.394
HO-68 10 Dec 09:17:53 09:22:36 19° 300° (WNW) 09:27:20 435.675
TIGRISAT 10 Dec 09:23:15 09:27:57 78° 259° (W) 09:32:35 435.000
Oscar 11 10 Dec 09:24:08 09:28:01 34° 287° (WNW) 09:31:55 145.826/435.025
ANTELSAT 10 Dec 09:26:04 09:30:43 68° 259° (W) 09:35:21 437.575/2403.000
HUMSAT D 10 Dec 09:39:35 09:43:36 58° 100° (E) 09:47:37 437.325/437.525
DANDE 10 Dec 09:43:18 09:47:29 40° 278° (W) 09:50:44 436.750
JUGNU 10 Dec 09:58:41 10:02:55 20° 177° (S) 10:07:08 437.505
PCSat 10 Dec 09:59:50 10:05:14 81° 296° (WNW) 10:10:41 145.827
SRMSAT 10 Dec 10:01:15 10:02:39 11° 164° (SSE) 10:04:03 437.500
AO-85 10 Dec 10:01:31 10:05:22 60° 244° (WSW) 10:09:10 145.980
NANOSAT C BR1 10 Dec 10:05:54 10:09:35 29° 71° (ENE) 10:13:16 145.865
JAS-2 10 Dec 10:08:16 10:14:36 64° 75° (ENE) 10:20:14 435.910
QB50P2 10 Dec 10:16:11 10:20:15 45° 74° (ENE) 10:24:21 145.880/145.840
POLYITAN 1 10 Dec 10:16:36 10:20:39 42° 74° (ENE) 10:24:43 437.675
DELFI C3 10 Dec 10:20:07 10:23:02 20° 290° (WNW) 10:25:58 145.870
GONETS M04 10 Dec 10:23:08 10:31:09 39° 76° (ENE) 10:39:09
DUCHIFAT 1 10 Dec 10:25:04 10:29:07 45° 74° (ENE) 10:33:12 145.980
QB50P1 10 Dec 10:27:49 10:32:01 59° 76° (ENE) 10:36:15 145.935-145.965
Cosmos 2499 10 Dec 10:29:54 10:37:55 47° 77° (ENE) 10:45:18 435.465 / 435.565
UNISAT 6 10 Dec 10:34:37 10:36:27 12° 268° (W) 10:38:17 437.425
CUBEBUG 1 10 Dec 10:35:56 10:38:59 18° 95° (E) 10:42:01 437.445
ESTCUBE 1 10 Dec 10:36:31 10:40:35 32° 98° (E) 10:44:38 437.505/2401.250
POPSAT HIP 1 10 Dec 10:49:47 10:54:03 76° 258° (WSW) 10:58:21 437.405
SPROUT 10 Dec 10:56:58 10:58:44 12° 93° (E) 11:00:29 437.525
VELOX 1 10 Dec 10:59:14 11:02:41 22° 96° (E) 11:06:06 145.980
BUGSAT 1 10 Dec 11:01:46 11:05:47 43° 74° (ENE) 11:09:50 437.445
50 SAT 10 Dec 11:30:16 11:33:39 39° 99° (E) 11:37:01 437.505
BEESAT 3 10 Dec 11:30:34 11:32:48 14° 50° (NE) 11:35:00 437.485
Oscar 19 10 Dec 11:33:17 11:37:20 24° 68° (ENE) 11:41:25 437.125/150
RS-15 10 Dec 11:33:52 11:38:46 13° 6° (N) 11:43:39 29.354- 29.394
NANOSAT C BR1 10 Dec 11:42:15 11:45:16 19° 265° (W) 11:48:19 145.865
SRMSAT 10 Dec 11:47:09 11:51:06 18° 173° (S) 11:55:03 437.500
JUGNU 10 Dec 11:47:18 11:51:16 18° 187° (S) 11:55:13 437.505
PCSat 10 Dec 11:48:01 11:49:27 11° 314° (NW) 11:50:53 145.827
QB50P2 10 Dec 11:54:33 11:56:14 12° 267° (W) 11:57:54 145.880/145.840
POLYITAN 1 10 Dec 11:54:39 11:56:35 13° 267° (W) 11:58:33 437.675
JAS-2 10 Dec 11:56:23 11:59:50 15° 265° (W) 12:03:07 435.910
AISAT 10 Dec 11:58:11 12:02:38 70° 284° (WNW) 12:07:04 437.250
DUCHIFAT 1 10 Dec 12:03:21 12:04:59 12° 267° (W) 12:06:37 145.980
Gurwin Techsat 1B 10 Dec 12:08:49 12:13:16 28° 69° (ENE) 12:17:42 435.225
BEESAT 2 10 Dec 12:10:04 12:12:47 17° 51° (NE) 12:15:30 435.950
CUBEBUG 1 10 Dec 12:11:19 12:15:16 32° 288° (WNW) 12:19:12 437.445
ESTCUBE 1 10 Dec 12:13:53 12:17:08 20° 291° (WNW) 12:20:22 437.505/2401.250
GONETS M04 10 Dec 12:19:58 12:27:48 39° 273° (W) 12:35:41
Cosmos 2499 10 Dec 12:23:41 12:30:33 30° 276° (W) 12:37:01 435.465 / 435.565
UKube-1 10 Dec 12:28:26 12:32:47 89° 307° (NW) 12:37:06 .
SPROUT 10 Dec 12:30:45 12:34:50 43° 286° (WNW) 12:38:52 437.525
DX 1 10 Dec 12:31:19 12:35:39 59° 285° (WNW) 12:39:57 434.975-435.025
VELOX 1 10 Dec 12:35:17 12:39:03 28° 290° (WNW) 12:42:50 145.980
BUGSAT 1 10 Dec 12:39:34 12:41:19 12° 267° (W) 12:43:05 437.445
BEESAT 3 10 Dec 13:06:50 13:10:37 43° 246° (WSW) 13:14:22 437.485
Oscar 19 10 Dec 13:11:52 13:16:26 33° 262° (W) 13:21:04 437.125/150
ITUPSAT 1 10 Dec 13:15:52 13:18:05 13° 93° (E) 13:20:18 437.325
ISS 10 Dec 13:22:09 13:25:21 58° 134° (SE) 13:28:35 145.825
AO-7 10 Dec 13:25:18 13:32:27 34° 62° (ENE) 13:39:39 29.400- 29.500
TISAT 1 10 Dec 13:34:32 13:38:39 55° 285° (WNW) 13:42:44 437.305
SRMSAT 10 Dec 13:35:27 13:39:36 20° 184° (S) 13:43:44 437.500
JUGNU 10 Dec 13:38:23 13:39:33 11° 197° (SSW) 13:40:43 437.505
AUBIESAT-1 10 Dec 13:44:06 13:47:04 18° 98° (E) 13:49:55 437.475
BEESAT 2 10 Dec 13:46:59 13:50:40 35° 247° (WSW) 13:54:19 435.950
RS-15 10 Dec 13:47:08 13:57:32 30° 41° (NE) 14:07:38 29.354- 29.394
Gurwin Techsat 1B 10 Dec 13:48:24 13:53:03 31° 263° (W) 13:57:43 435.225
ITAMSAT 1 10 Dec 13:50:37 13:55:44 59° 74° (ENE) 14:00:51 435.822/435.867
M-CUBED/EXP-1 PRIME 10 Dec 13:59:50 14:04:00 35° 101° (ESE) 14:07:55 437.505
SWISSCUBE 10 Dec 14:16:47 14:21:33 77° 103° (ESE) 14:26:17 437.505
BEESAT 10 Dec 14:20:16 14:25:02 74° 102° (ESE) 14:29:46 436.000
O/OREOS (USA 219) 10 Dec 14:38:35 14:43:08 75° 290° (WNW) 14:47:41 437.305
MOZHAYETS 4 10 Dec 14:41:38 14:45:33 28° 97° (E) 14:49:27
ITUPSAT 1 10 Dec 14:51:33 14:56:09 51° 286° (WNW) 15:00:44 437.325
ISS 10 Dec 15:00:09 15:02:07 15° 330° (NNW) 15:04:04 145.825
AO-7 10 Dec 15:16:57 15:24:52 49° 258° (WSW) 15:32:52 29.400- 29.500
AUBIESAT-1 10 Dec 15:17:28 15:21:33 35° 293° (WNW) 15:25:25 437.475
AIST 2 10 Dec 15:21:08 15:25:13 46° 58° (ENE) 15:29:16 435.215
SRMSAT 10 Dec 15:25:15 15:28:04 14° 193° (SSW) 15:30:52 437.500
GOMX 1 10 Dec 15:29:11 15:29:44 10° 62° (ENE) 15:30:16 467.674
ITAMSAT 1 10 Dec 15:33:03 15:35:30 13° 267° (W) 15:37:57 435.822/435.867
M-CUBED/EXP-1 PRIME 10 Dec 15:34:51 15:38:08 20° 297° (WNW) 15:41:18 437.505
RS-15 10 Dec 15:59:12 16:11:35 84° 244° (WSW) 16:23:26 29.354- 29.394
STARS 10 Dec 16:02:29 16:06:36 38° 99° (E) 16:10:40 437.465
CUTE-I 10 Dec 16:03:59 16:07:07 16° 64° (ENE) 16:10:14 437.470
LilacSat-2 10 Dec 16:06:23 16:06:59 10° 67° (ENE) 16:07:34 437.200
NOAA 15 10 Dec 16:09:13 16:12:52 19° 66° (ENE) 16:16:30 137.62
KKS-1 10 Dec 16:10:45 16:15:13 71° 284° (WNW) 16:19:38 437.445
BRITE-PL 10 Dec 16:15:29 16:19:49 87° 72° (ENE) 16:24:30 437.365/2234.400
HORYU 2 10 Dec 16:18:41 16:23:10 75° 75° (ENE) 16:27:38 437.375
MOZHAYETS 4 10 Dec 16:19:00 16:22:32 23° 290° (WNW) 16:26:04
Cosmos 2491 10 Dec 16:24:38 16:32:18 33° 74° (ENE) 16:39:56 435.465 / 435.565
Cubesat XI-IV 10 Dec 16:30:02 16:34:32 28° 69° (ENE) 16:39:03 437.490
CUBESAT XI-V 10 Dec 16:34:40 16:39:21 70° 101° (E) 16:44:01 437.345
DOVE 4 10 Dec 16:46:45 16:50:59 30° 70° (ENE) 16:55:26 437.250
YUBILEINY 10 Dec 16:47:18 16:53:12 21° 81° (E) 16:59:06 435.215
SO-50 10 Dec 16:51:28 16:52:53 11° 107° (ESE) 16:54:17 436.795
NOAA 18 10 Dec 16:55:07 16:59:57 32° 69° (ENE) 17:04:49 137.9125
AIST 2 10 Dec 17:01:21 17:03:15 13° 252° (WSW) 17:05:09 435.215
GOMX 1 10 Dec 17:02:22 17:06:58 74° 259° (W) 17:11:58 467.674
CINEMA 3 10 Dec 17:27:52 17:31:29 21° 68° (ENE) 17:35:09 145.822/145.860
LilacSat-2 10 Dec 17:37:09 17:40:50 44° 261° (W) 17:44:30 437.200
STARS 10 Dec 17:39:55 17:42:35 16° 293° (WNW) 17:45:15 437.465
CUTE-I 10 Dec 17:41:21 17:46:37 57° 259° (W) 17:51:55 437.470
CUTE 1.7 + AOD 2 10 Dec 17:43:11 17:45:19 14° 68° (ENE) 17:47:26 437.475
NOAA 15 10 Dec 17:47:18 17:52:15 44° 260° (W) 17:57:15 137.62
HO-68 10 Dec 17:53:12 17:59:37 37° 66° (ENE) 18:06:03 435.675
CANX-2 10 Dec 18:00:46 18:04:17 26° 71° (ENE) 18:07:47 2200.000
Cubesat XI-IV 10 Dec 18:09:45 18:14:27 31° 263° (W) 18:19:11 437.490
RS-15 10 Dec 18:15:14 18:22:05 17° 262° (W) 18:28:51 29.354- 29.394
SEEDS 10 Dec 18:15:24 18:18:35 22° 71° (ENE) 18:21:47 437.485
CUBESAT XI-V 10 Dec 18:15:38 18:16:05 10° 295° (WNW) 18:16:33 437.345
COMPASS 1 10 Dec 18:16:41 18:18:55 14° 68° (ENE) 18:21:09 437.405
Cosmos 2491 10 Dec 18:21:05 18:29:12 46° 271° (W) 18:37:20 435.465 / 435.565
Cosmos 2504 10 Dec 18:24:20 18:32:13 48° 88° (E) 18:40:32 435.465 / 435.565
DOVE 4 10 Dec 18:24:38 18:28:36 25° 266° (W) 18:32:46 437.250
SO-50 10 Dec 18:28:02 18:32:47 66° 300° (WNW) 18:37:29 436.795
NOAA 18 10 Dec 18:35:48 18:40:31 29° 263° (W) 18:45:17 137.9125
YUBILEINY 10 Dec 18:40:23 18:49:02 70° 278° (W) 18:57:47 435.215
CUSAT 1 10 Dec 18:43:39 18:47:30 28° 80° (E) 18:52:17 437.405
AIST 1 10 Dec 18:45:19 18:49:38 85° 93° (E) 18:54:00
CUBEBUG 2 10 Dec 18:46:13 18:50:26 33° 72° (ENE) 18:54:38 437.445
PCSat 10 Dec 18:51:42 18:56:41 36° 58° (ENE) 19:01:38 145.827
CINEMA 3 10 Dec 19:03:40 19:08:16 38° 263° (W) 19:12:57 145.822/145.860
STRAND 1 10 Dec 19:04:13 19:09:20 80° 103° (ESE) 19:14:25 437.568
AAUSAT CUBESAT 2 10 Dec 19:14:18 19:18:18 56° 76° (ENE) 19:22:20 437.432
CUTE 1.7 + AOD 2 10 Dec 19:16:49 19:20:46 40° 262° (W) 19:24:43 437.475
UWE-3 10 Dec 19:17:10 19:21:35 45° 74° (ENE) 19:25:57 435.000/436.395/437.385
CANX-2 10 Dec 19:36:57 19:40:04 20° 265° (W) 19:43:11 2200.000
HO-68 10 Dec 19:40:45 19:47:13 36° 262° (W) 19:53:44 435.675
ZACube-1 10 Dec 19:46:03 19:50:30 58° 75° (ENE) 19:54:53 437.345
COMPASS 1 10 Dec 19:50:19 19:54:07 36° 262° (W) 19:57:56 437.405
FUNcube-1 10 Dec 19:50:36 19:55:02 60° 75° (ENE) 19:59:25 145.935
SEEDS 10 Dec 19:50:46 19:54:08 24° 264° (W) 19:57:30 437.485
ISS 10 Dec 19:53:44 19:55:51 16° 31° (NNE) 19:57:56 145.825
Oscar 11 10 Dec 20:14:23 20:18:40 74° 258° (WSW) 20:23:00 145.826/435.025
PRISM 10 Dec 20:15:53 20:19:23 26° 97° (E) 20:22:51 437.425
Cosmos 2504 10 Dec 20:18:21 20:25:44 33° 286° (WNW) 20:33:29 435.465 / 435.565
DANDE 10 Dec 20:22:09 20:25:29 78° 82° (E) 20:29:51 436.750
CUBEBUG 2 10 Dec 20:23:29 20:27:02 21° 265° (W) 20:30:33 437.445
CUSAT 1 10 Dec 20:25:31 20:29:16 25° 265° (W) 20:33:51 437.405
HUMSAT D 10 Dec 20:27:24 20:30:49 25° 71° (ENE) 20:34:11 437.325/437.525
PCSat 10 Dec 20:35:28 20:39:51 26° 253° (WSW) 20:44:14 145.827
YUBILEINY 10 Dec 20:46:26 20:47:29 10° 298° (WNW) 20:48:33 435.215
STRAND 1 10 Dec 20:47:06 20:47:46 10° 298° (WNW) 20:48:27 437.568
PHONESAT 2.4 10 Dec 20:51:03 20:53:35 40° 150° (SSE) 20:56:07 2401.200-2431.200
UNISAT 6 10 Dec 20:52:12 20:54:25 14° 93° (E) 20:56:36 437.425
UWE-3 10 Dec 20:55:42 20:58:10 14° 267° (W) 21:00:37 435.000/436.395/437.385
DELFI C3 10 Dec 21:00:49 21:04:41 57° 260° (W) 21:08:33 145.870
TIGRISAT 10 Dec 21:19:12 21:22:53 27° 97° (E) 21:26:30 435.000
ANTELSAT 10 Dec 21:21:59 21:25:50 31° 97° (E) 21:29:38 437.575/2403.000
ZACube-1 10 Dec 21:26:17 21:27:02 10° 268° (W) 21:27:46 437.345
ISS 10 Dec 21:29:19 21:32:34 53° 226° (SW) 21:35:47 145.825
ESTCUBE 1 10 Dec 21:33:07 21:36:17 19° 69° (ENE) 21:39:28 437.505/2401.250
PRISM 10 Dec 21:51:22 21:54:29 21° 291° (WNW) 21:57:36 437.425
VELOX 1 10 Dec 21:54:21 21:56:19 13° 66° (ENE) 21:58:16 145.980
HUMSAT D 10 Dec 22:03:07 22:06:19 21° 264° (W) 22:09:31 437.325/437.525
QB50P1 10 Dec 22:18:12 22:19:58 12° 93° (E) 22:21:44 145.935-145.965
PHONESAT 2.4 10 Dec 22:26:21 22:28:46 30° 345° (NNW) 22:31:11 2401.200-2431.200
UNISAT 6 10 Dec 22:27:15 22:31:17 39° 287° (WNW) 22:35:15 437.425
POPSAT HIP 1 10 Dec 22:38:56 22:42:15 22° 96° (E) 22:45:32 437.405
AISAT 10 Dec 22:51:22 22:55:44 64° 75° (ENE) 23:00:09 437.250
TIGRISAT 10 Dec 22:56:12 22:59:23 20° 291° (WNW) 23:02:30 435.000
ANTELSAT 10 Dec 22:59:23 23:02:16 18° 292° (WNW) 23:05:08 437.575/2403.000
Cosmos 2499 10 Dec 23:00:15 23:08:12 43° 88° (E) 23:16:24 435.465 / 435.565
CUBEBUG 1 10 Dec 23:02:44 23:07:03 64° 259° (WSW) 23:11:25 437.445
JAS-2 10 Dec 23:05:27 23:10:46 77° 103° (ESE) 23:16:33 435.910
ESTCUBE 1 10 Dec 23:08:51 23:12:50 32° 262° (W) 23:16:49 437.505/2401.250
UKube-1 10 Dec 23:19:01 23:23:08 45° 73° (ENE) 23:27:15 .
GONETS M04 10 Dec 23:19:08 23:27:26 51° 90° (E) 23:35:43
SPROUT 10 Dec 23:19:46 23:24:04 83° 77° (ENE) 23:28:24 437.525
DX 1 10 Dec 23:22:40 23:26:59 71° 76° (ENE) 23:31:21 434.975-435.025
VELOX 1 10 Dec 23:28:01 23:32:16 49° 260° (W) 23:36:36 145.980
NANOSAT C BR1 10 Dec 23:28:47 23:33:01 89° 258° (WSW) 23:37:12 145.865
50 SAT 10 Dec 23:34:43 23:38:00 38° 261° (W) 23:41:18 437.505
QB50P2 10 Dec 23:40:14 23:44:22 54° 285° (WNW) 23:48:28 145.880/145.840
POLYITAN 1 10 Dec 23:40:36 23:44:44 58° 285° (WNW) 23:48:50 437.675
DUCHIFAT 1 10 Dec 23:48:09 23:52:16 56° 285° (WNW) 23:56:20 145.980
Oscar 19 10 Dec 23:50:42 23:51:55 11° 91° (E) 23:53:09 437.125/150
QB50P1 10 Dec 23:51:55 23:55:54 42° 286° (WNW) 23:59:52 145.935-145.965
PHONESAT 2.4 11 Dec 00:02:19 00:04:21 19° 1° (N) 00:06:23 2401.200-2431.200
AO-85 11 Dec 00:11:07 00:16:08 80° 298° (WNW) 00:20:48 145.980
POPSAT HIP 1 11 Dec 00:14:32 00:17:55 24° 290° (WNW) 00:21:16 437.405
ITUPSAT 1 11 Dec 00:20:31 00:21:43 11° 64° (ENE) 00:22:55 437.325
TISAT 1 11 Dec 00:21:50 00:26:01 63° 75° (ENE) 00:30:14 437.305
BUGSAT 1 11 Dec 00:22:19 00:26:24 62° 285° (WNW) 00:30:26 437.445
AUBIESAT-1 11 Dec 00:26:50 00:28:51 13° 60° (ENE) 00:30:54 437.475
Gurwin Techsat 1B 11 Dec 00:29:52 00:32:39 14° 93° (E) 00:35:26 435.225
M-CUBED/EXP-1 PRIME 11 Dec 00:42:18 00:45:42 24° 64° (ENE) 00:49:17 437.505
O/OREOS (USA 219) 11 Dec 00:52:21 00:56:49 74° 252° (WSW) 01:01:15 437.305
Cosmos 2499 11 Dec 00:53:31 01:01:17 37° 285° (WNW) 01:09:22 435.465 / 435.565
JAS-2 11 Dec 00:53:57 00:55:18 11° 296° (WNW) 00:56:41 435.910
UKube-1 11 Dec 00:57:36 00:59:20 12° 267° (W) 01:01:06 .
GONETS M04 11 Dec 01:17:08 01:24:27 30° 287° (WNW) 01:31:49
SWISSCUBE 11 Dec 01:19:20 01:24:00 57° 74° (ENE) 01:28:39 437.505
BEESAT 11 Dec 01:22:47 01:27:25 55° 74° (ENE) 01:32:05 436.000
Oscar 19 11 Dec 01:26:28 01:31:39 71° 285° (WNW) 01:36:49 437.125/150
AO-7 11 Dec 01:35:32 01:36:46 10° 90° (E) 01:38:00 29.400- 29.500
PHONESAT 2.4 11 Dec 01:37:24 01:39:54 38° 17° (NNE) 01:42:23 2401.200-2431.200
MOZHAYETS 4 11 Dec 01:40:36 01:43:41 18° 68° (ENE) 01:46:47
ITUPSAT 1 11 Dec 01:54:10 01:58:55 68° 258° (WSW) 02:03:41 437.325
AUBIESAT-1 11 Dec 01:58:36 02:02:40 52° 256° (WSW) 02:07:02 437.475
Gurwin Techsat 1B 11 Dec 02:07:41 02:12:53 57° 287° (WNW) 02:18:04 435.225
ITAMSAT 1 11 Dec 02:07:43 02:12:08 28° 97° (E) 02:16:31 435.822/435.867
M-CUBED/EXP-1 PRIME 11 Dec 02:16:30 02:20:00 26° 260° (W) 02:23:43 437.505
BEESAT 3 11 Dec 02:52:59 02:56:49 75° 118° (ESE) 03:00:45 437.485
STARS 11 Dec 02:55:51 02:59:15 22° 69° (ENE) 03:02:40 437.465
SWISSCUBE 11 Dec 03:00:23 03:02:04 12° 268° (W) 03:03:45 437.505
SO-50 11 Dec 03:03:13 03:07:26 38° 56° (NE) 03:11:34 436.795
BEESAT 11 Dec 03:03:34 03:05:27 12° 267° (W) 03:07:22 436.000
KKS-1 11 Dec 03:04:39 03:09:04 65° 75° (ENE) 03:13:32 437.445
PHONESAT 2.4 11 Dec 03:12:42 03:14:58 26° 212° (SSW) 03:17:13 2401.200-2431.200
MOZHAYETS 4 11 Dec 03:16:21 03:20:32 36° 262° (W) 03:24:45
AO-7 11 Dec 03:22:12 03:30:36 74° 106° (ESE) 03:38:57 29.400- 29.500
CUBESAT XI-V 11 Dec 03:34:13 03:38:32 42° 73° (ENE) 03:42:53 437.345
BEESAT 2 11 Dec 03:34:25 03:38:20 83° 299° (WNW) 03:42:19 435.950
ITAMSAT 1 11 Dec 03:47:06 03:51:29 29° 291° (WNW) 03:55:52 435.822/435.867
RS-15 11 Dec 04:09:18 04:16:53 20° 99° (E) 04:24:37 29.354- 29.394
HORYU 2 11 Dec 04:14:18 04:17:24 18° 95° (E) 04:20:28 437.375
BRITE-PL 11 Dec 04:23:06 04:28:27 43° 98° (E) 04:33:49 437.365/2234.400
Cosmos 2504 11 Dec 04:24:59 04:28:29 13° 63° (ENE) 04:31:54 435.465 / 435.565
STARS 11 Dec 04:31:39 04:35:25 27° 263° (W) 04:39:12 437.465
SO-50 11 Dec 04:44:35 04:47:33 18° 251° (WSW) 04:50:29 436.795
DOVE 4 11 Dec 04:51:39 04:53:25 12° 90° (E) 04:55:09 437.250
Cubesat XI-IV 11 Dec 04:52:07 04:54:58 14° 93° (E) 04:57:47 437.490
YUBILEINY 11 Dec 04:55:15 05:03:49 50° 79° (E) 05:12:17 435.215
AIST 1 11 Dec 04:57:37 05:00:06 15° 74° (ENE) 05:02:34
GOMX 1 11 Dec 05:07:40 05:12:59 49° 99° (E) 05:18:09 467.674
CUBESAT XI-V 11 Dec 05:13:31 05:16:04 15° 267° (W) 05:18:37 437.345
LilacSat-2 11 Dec 05:14:27 05:17:29 23° 96° (E) 05:20:30 437.200
AIST 2 11 Dec 05:15:37 05:18:51 23° 111° (ESE) 05:22:07 435.215
AO-7 11 Dec 05:16:29 05:22:30 23° 302° (WNW) 05:28:32 29.400- 29.500
Cosmos 2491 11 Dec 05:20:47 05:28:54 44° 88° (E) 05:36:59 435.465 / 435.565
NOAA 18 11 Dec 05:21:42 05:25:21 18° 94° (E) 05:28:59 137.9125
HORYU 2 11 Dec 05:50:03 05:53:57 31° 289° (WNW) 05:57:50 437.375
